Location: Newark
(42.8481°N, 0.4872°E)
Time: 20:27:03
(UTC+00:00)

Transit 2A - Pass Details

Date: 30 October 2020
Orbit: 595 x 963 km, 66.7° (Epoch: 03 December)

Event Time Altitude Azimuth Distance (km) Brightness Sun altitude
Rises 09:10:54 0° 329° (NNW) 3,441 8.8 23.5°
Reaches altitude 10° 09:13:31 10° 331° (NNW) 2,445 8.1 23.8°
Maximum altitude 09:19:08 77° 58° (ENE) 792 6.5 24.4°
Drops below altitude 10° 09:24:07 10° 144° (SE) 2,180 10.3 25.0°
Sets 09:26:19 0° 146° (SE) 3,042 10.5 25.2°
